Home > Weather > Serang > Past weeks

Flag for Indonesia Weather for the Past 2 Weeks in Serang, Banten, Indonesia

Now
82 °F

Thunderstorms. Broken clouds.


Feels Like: 89 °F
Forecast: 79 / 89 °F
Wind: 12 mph from South

Location: Jakarta / Soekarno-Hatta

Current Time: Apr 29, 2016 at 5:48:35 PM

Latest Report: Apr 29, 2016 at 5:00 PM


Visibility: 4 mi

Pressure: 29.80 "Hg

Humidity: 79%

Dew Point: 75 °F

Location of SerangLocation

Historic Weather in Serang — Graph

°F

Serang Temperature Yesterday

Maximum temperature yesterday: 90 °F (at 10:00 AM)
Minimum temperature yesterday: 79 °F (at 2:30 AM)
Average temperature yesterday: 84 °F

High & Low Weather Summary for the Past Weeks

 TemperatureHumidityPressure
High91 °F (Apr 14, 4:00 PM)100% (Apr 15, 4:00 AM)29.89 "Hg (Apr 15, 4:00 AM)
Low77 °F (Apr 17, 7:00 PM)20% (Apr 17, 5:00 PM)29.71 "Hg (Apr 19, 3:30 PM)
Average84 °F82%29.81 "Hg
* Reported Apr 14 4:00 PM — Apr 29 4:30 PM, Serang, Weather by CustomWeather, © 2016

Note: Actual official high and low records may vary slightly from our data, if they occured in-between our weather recording intervals... More about our weather records

Advertising

Serang Weather History for the Previous 24 Hours

Scroll right to see more
 ConditionsComfort  
Time TempWeatherWind HumidityBarometerVisibility
4:30 PM
Fri, Apr 29
86 °FThundershowers. Sandstorm.7 mph70%29.77 "Hg4 mi
3:30 PM90 °FScattered clouds.15 mph67%29.74 "HgN/A
3:00 PM90 °FScattered clouds.N/A67%29.74 "Hg5 mi
2:30 PM90 °FPassing clouds.16 mph67%29.74 "HgN/A
2:00 PM90 °FPassing clouds.12 mph63%29.77 "Hg6 mi
1:30 PM91 °FPassing clouds.12 mph59%29.77 "Hg6 mi
1:00 PM91 °FPassing clouds.13 mph56%29.77 "Hg6 mi
12:00 PM91 °FScattered clouds.10 mph59%29.80 "Hg5 mi
11:00 AM90 °FScattered clouds.13 mph63%29.83 "Hg4 mi
10:30 AM90 °FScattered clouds.12 mph63%29.83 "Hg4 mi
9:30 AM88 °FScattered clouds.10 mph66%29.86 "Hg4 mi
9:00 AM88 °FScattered clouds.13 mph70%29.86 "Hg4 mi
8:00 AM84 °FScattered clouds.8 mph74%29.86 "Hg4 mi
7:30 AM82 °FPassing clouds.10 mph79%29.83 "Hg6 mi
7:00 AM82 °FPassing clouds.8 mph79%29.83 "Hg5 mi
6:30 AM82 °FPassing clouds.10 mph79%29.83 "Hg5 mi
6:00 AM81 °FCloudy.7 mph84%29.83 "HgN/A
5:30 AM81 °FPassing clouds.7 mph89%29.83 "Hg4 mi
4:30 AM81 °FMostly cloudy.5 mph89%29.80 "Hg4 mi
4:00 AM81 °FHaze.6 mph89%29.80 "Hg2 mi
3:30 AM81 °FHaze.3 mph89%29.80 "Hg2 mi
3:00 AM81 °FHaze.2 mph89%29.80 "Hg2 mi
2:30 AM81 °FHaze.5 mph89%29.80 "Hg2 mi
2:00 AM79 °FHaze.3 mph89%29.80 "Hg2 mi
1:30 AM79 °FHaze.3 mph89%29.80 "Hg2 mi
1:00 AM79 °FHaze.2 mph89%29.80 "Hg2 mi
12:30 AM81 °FHaze.5 mph84%29.83 "Hg2 mi
12:00 AM79 °FHaze.3 mph89%29.83 "Hg2 mi
11:30 PM
Thu, Apr 28
79 °FHaze.6 mph89%29.86 "Hg2 mi
11:00 PM79 °FHaze.6 mph89%29.86 "Hg3 mi
10:30 PM81 °FPassing clouds.5 mph84%29.86 "Hg4 mi
10:00 PM81 °FPassing clouds.6 mph84%29.86 "Hg4 mi
9:30 PM81 °FPassing clouds.5 mph84%29.86 "Hg4 mi
9:00 PM84 °FPassing clouds.9 mph79%29.86 "Hg4 mi
8:00 PM82 °FPassing clouds.9 mph79%29.80 "Hg5 mi
7:30 PM84 °FPassing clouds.9 mph79%29.80 "Hg5 mi
7:00 PM84 °FPassing clouds.12 mph84%29.80 "Hg5 mi
6:30 PM84 °FPassing clouds.10 mph84%29.77 "Hg5 mi
6:00 PM84 °FPassing clouds.9 mph79%29.77 "Hg5 mi
5:30 PM86 °FScattered clouds.13 mph75%29.74 "Hg6 mi
5:00 PM86 °FPassing clouds.14 mph79%29.74 "HgN/A
Weather by CustomWeather, © 2016

See weather overviewHow to use our weather pages